Location: Caltech
(34.1382°N, 118.1253°W)
Time: 21:33:01
(UTC-08:00)

UOSAT-12 - Visible Passes

Search period start: 08 February 2016 00:00
Search period end: 18 February 2016 00:00
Orbit: 613 x 642 km, 64.6° (Epoch: 08 February)

Date Brightness Start Highest point End Pass type
(mag) Time Alt. Az. Time Alt. Az. Time Alt. Az.
08 Feb 10.0 04:42:37 10° SSE 04:45:30 17° ESE 04:48:23 10° ENE visible
09 Feb 8.5 05:00:54 10° S 05:05:10 39° ESE 05:09:28 10° NE visible
10 Feb 7.0 05:20:24 10° SSW 05:25:00 85° WNW 05:29:39 10° NNE visible
11 Feb 9.5 04:03:44 17° SE 04:05:12 20° ESE 04:08:34 10° ENE visible
11 Feb 7.7 05:41:10 12° WSW 05:45:02 36° NW 05:49:18 10° NNE visible
12 Feb 7.9 04:24:50 48° ESE 04:24:55 48° ESE 04:29:22 10° NE visible
12 Feb 8.7 06:02:13 10° W 06:05:15 17° NW 06:08:20 10° N visible
13 Feb 7.3 04:45:28 60° N 04:45:28 60° N 04:49:24 10° NNE visible
14 Feb 10.2 03:28:25 11° ENE 03:28:25 11° ENE 03:28:37 10° ENE visible
14 Feb 8.2 05:05:46 28° NNW 05:05:46 28° NNW 05:08:57 10° N visible
15 Feb 9.8 03:48:31 14° NE 03:48:31 14° NE 03:49:12 10° NE visible
15 Feb 9.0 05:25:51 14° NW 05:25:51 14° NW 05:27:45 10° NNW visible
16 Feb 9.6 04:08:26 14° NNE 04:08:26 14° NNE 04:09:08 10° NNE visible
17 Feb 9.6 04:28:14 11° N 04:28:14 11° N 04:28:33 10° N visible
